CW6020 Weather Reports


time (UTC)temp
F
wind
direction
speed
knots
gust
knots
rain 1hr
in
rain 24hr
in
rain mn
in
humidity
%
barometer
mb
20260504081020 63 174 1.7 3.5 0.00 0.04 0.04 93 1012.1
20260504050021 61 146 1.7 2.6 0.00 0.04 0.04 93 1011.5
20260504045021 60 306 2.6 7.8 0.01 0.04 0.04 93 1011.4
20260504044021 60 359 1.7 6.1 0.01 0.05 0.04 93 1011.4
20260504043021 60 348 4.3 7.8 0.02 0.05 0.04 93 1011.3
20260504042021 61 360 2.6 7.0 0.04 0.05 0.04 94 1011.5
20260504041040 61 339 0.9 7.0 0.04 0.05 0.04 94 1011.5
20260504040020 61 336 2.6 5.2 0.04 0.05 0.04 94 1011.7
20260504035041 62 312 0.9 2.6 0.03 0.04 0.03 94 1012.0
20260504034021 62 326 0.9 3.5 0.02 0.04 0.02 93 1012.1
20260504033021 62 45 0.9 2.6 0.02 0.03 0.02 93 1012.3
20260504032021 62 287 0.9 3.5 0.00 0.02 0.00 92 1012.2
20260504031020 62 230 0.9 2.6 0.00 0.02 0.00 91 1012.4
20260504030021 62 322 2.6 6.1 0.00 0.02 0.00 91 1012.3
20260504025021 62 182 1.7 3.5 0.00 0.02 0.00 90 1012.4
20260504024021 62 317 0.9 3.5 0.00 0.02 0.00 89 1012.5
20260504023021 62 341 1.7 3.5 0.00 0.02 0.00 89 1012.6
20260504022021 62 239 0.9 4.3 0.00 0.02 0.00 88 1012.5
20260504021021 61 347 2.6 7.0 0.00 0.02 0.00 88 1012.5
20260504020020 62 343 1.7 4.3 0.00 0.02 0.00 88 1012.5
20260504015020 62 125 0.9 3.5 0.00 0.02 0.00 88 1012.6
20260504014020 61 169 0.9 3.5 0.00 0.02 0.00 86 1012.7
20260504013020 61 24 0.9 3.5 0.00 0.02 0.00 86 1012.7
20260504012040 61 338 0.9 2.6 0.00 0.02 0.00 86 1012.6
20260504011020 61 16 1.7 5.2 0.00 0.02 0.00 88 1012.6
20260504010021 61 349 1.7 3.5 0.00 0.02 0.00 89 1012.5
20260504005021 61 164 0.0 1.7 0.00 0.02 0.00 89 1012.4
20260504004021 61 0.0 0.9 0.00 0.02 0.00 89 1012.4
20260504003041 61 163 0.9 0.9 0.00 0.02 0.00 88 1012.6
20260504002041 61 325 1.7 1.7 0.00 0.02 0.00 89 1012.5
20260504001040 61 0.0 0.0 0.00 0.02 0.00 89 1012.7
20260504000021 61 53 0.0 1.7 0.00 0.02 0.00 89 1012.8
20260503235022 61 137 0.0 1.7 0.00 0.02 0.00 87 1012.8
20260503234021 61 0.0 0.9 0.00 0.02 0.00 89 1013.0
20260503233021 61 0.0 0.0 0.00 0.02 0.00 89 1013.0
20260503232021 61 0.0 0.9 0.00 0.02 0.00 89 1013.2
20260503231041 61 0.0 0.9 0.00 0.02 0.00 89 1013.2
20260503230021 61 0.0 0.0 0.00 0.02 0.00 89 1013.4
20260503225020 61 0.0 0.0 0.00 0.02 0.00 89 1013.4
20260503224020 61 0.0 0.0 0.00 0.02 0.00 89 1013.5
20260503223020 61 0.0 0.9 0.00 0.02 0.00 89 1013.5
20260503222041 61 0.0 0.9 0.00 0.02 0.00 89 1013.5
20260503221040 61 0.0 0.9 0.00 0.02 0.00 89 1013.5
20260503220021 60 98 0.0 0.9 0.00 0.02 0.00 89 1013.6
20260503215041 61 241 0.0 1.7 0.00 0.02 0.02 89 1013.7
20260503214021 60 0.0 0.0 0.00 0.02 0.02 89 1013.6
20260503213021 60 293 0.0 0.9 0.00 0.02 0.02 91 1013.8
20260503212041 60 233 0.0 1.7 0.00 0.02 0.02 90 1013.6
20260503211100 60 132 1.7 2.6 0.00 0.02 0.02 90 1013.6
20260503210020 60 354 0.0 2.6 0.00 0.02 0.02 89 1013.6
20260503205021 60 284 1.7 3.5 0.00 0.02 0.02 89 1013.5
20260503204100 61 313 0.0 0.9 0.00 0.02 0.02 88 1013.5
20260503203021 61 137 0.0 1.7 0.00 0.02 0.02 88 1013.1
20260503202020 61 347 0.0 3.5 0.00 0.02 0.02 88 1012.9
20260503201101 61 324 0.9 4.3 0.00 0.02 0.02 88 1012.9
20260503200021 61 268 1.7 5.2 0.00 0.02 0.02 87 1012.7
20260503195021 62 344 1.7 10.4 0.00 0.02 0.02 87 1012.6
20260503194020 61 346 1.7 5.2 0.00 0.02 0.02 87 1012.4
20260503193020 61 325 0.9 3.5 0.00 0.02 0.02 87 1012.2
20260503192020 62 144 0.0 1.7 0.00 0.02 0.02 87 1012.2
20260503191021 62 19 0.0 1.7 0.00 0.02 0.02 87 1012.2
20260503190021 62 186 0.9 1.7 0.00 0.02 0.02 86 1012.2
20260503185041 62 344 0.9 3.5 0.00 0.02 0.02 87 1012.2
20260503184021 62 8 0.9 5.2 0.00 0.02 0.02 86 1012.2
20260503183021 62 130 0.0 0.9 0.00 0.02 0.02 86 1012.1
20260503182021 62 283 0.9 1.7 0.00 0.03 0.02 86 1012.0
20260503181021 63 209 0.9 1.7 0.00 0.05 0.02 85 1011.9
20260503180021 63 236 0.9 2.6 0.00 0.05 0.02 85 1011.9
20260503175020 63 241 1.7 2.6 0.00 0.05 0.02 84 1011.9
20260503174021 63 277 1.7 3.5 0.00 0.05 0.02 83 1011.9
20260503173020 64 245 1.7 3.5 0.00 0.05 0.02 83 1011.8
20260503172101 64 245 1.7 3.5 0.00 0.05 0.02 82 1011.8
20260503171021 64 251 1.7 3.5 0.00 0.05 0.02 81 1011.9
20260503131021 70 263 2.6 6.1 0.00 0.05 0.02 69 1012.9